Kenosha, WI

3:35 PM CDT on April 29, 2017 (GMT -0500)
Kenosha Regional

Weather History for KENW - December, 2013

Change the Weather History Date:

Monday, December 9, 2013

  Actual Average Record
Temperature  
Mean Temperature 12 °F -  
Max Temperature 25 °F 35 °F 56 °F (1952)
Min Temperature -2 °F 20 °F -12 °F (1958)
Degree Days  
Heating Degree Days 54    
Moisture  
Dew Point 7 °F    
Average Humidity 72    
Maximum Humidity 85    
Minimum Humidity 60    
Precipitation  
Precipitation 0.00 in - - ()
Sea Level Pressure  
Sea Level Pressure 30.06 in    
Wind  
Wind Speed 15 mph (West)    
Max Wind Speed 26 mph    
Max Gust Speed 33 mph    
Visibility 7 miles    
Events Snow    
Averages and records for this station are not official NWS values.
T = Trace of Precipitation, MM = Missing Value Source: NWS Daily Summary

Daily Weather History Graph

Daily Weather History Graph

Search for Another Location

Airport or City:

Trip Planner

Search our weather history database for the weather conditions in past years. The results will help you decide how hot, cold, wet, or windy it might be!

Date:

Astronomy

Dec. 09, 2013 Rise Set
Actual Time 7:10 AM CST 4:18 PM CST
Civil Twilight 6:38 AM CST 4:50 PM CST
Nautical Twilight 6:02 AM CST 5:25 PM CST
Astronomical Twilight 5:28 AM CST 5:59 PM CST
Moon 11:55 AM CST (12/9) No Moon Set
Length of Visible Light 10h 11m
Length of Day
9h 08m
Waxing Crescent, 51% of the Moon is Illuminated
Dec 9
Waxing Crescent
Dec 17
Full
Dec 25
Last Quarter
Jan 1
New
Jan 7
First Quarter

Hourly Weather History & Observations

Time (CST) Temp. Windchill Dew Point Humidity Pressure Visibility Wind Dir Wind Speed Gust Speed Precip Events Conditions
12:53 AM 25.0 °F 13.6 °F 21.0 °F 85% 29.92 in 4.0 mi WSW 12.7 mph - N/A   Overcast
1:53 AM 24.1 °F 11.5 °F 19.9 °F 84% 29.93 in 4.0 mi West 15.0 mph - N/A   Overcast
2:53 AM 24.1 °F 13.1 °F 19.9 °F 84% 29.93 in 3.0 mi West 11.5 mph - N/A   Overcast
3:31 AM 24.1 °F 12.5 °F 19.0 °F 81% 29.90 in 3.0 mi West 12.7 mph - 0.00 in Snow Light Snow
3:53 AM 24.1 °F 12.5 °F 19.0 °F 81% 29.94 in 2.5 mi West 12.7 mph - 0.00 in Snow Light Snow
4:41 AM 23.0 °F 10.6 °F 18.0 °F 81% 29.92 in 3.0 mi West 13.8 mph - 0.00 in Snow Light Snow
4:53 AM 23.0 °F 9.2 °F 17.1 °F 78% 29.96 in 3.0 mi West 17.3 mph 24.2 mph 0.00 in Snow Light Snow
5:42 AM 21.9 °F 11.0 °F 15.1 °F 75% 29.94 in 7.0 mi West 10.4 mph 24.2 mph 0.00 in   Overcast
5:53 AM 21.0 °F 6.2 °F 15.1 °F 78% 29.97 in 7.0 mi West 18.4 mph 24.2 mph 0.00 in   Mostly Cloudy
6:53 AM 18.0 °F 4.2 °F 12.0 °F 78% 30.00 in 8.0 mi West 13.8 mph 21.9 mph N/A   Clear
7:53 AM 16.0 °F 1.7 °F 10.0 °F 77% 30.04 in 6.0 mi West 13.8 mph - N/A   Haze
8:53 AM 17.1 °F 2.0 °F 10.0 °F 74% 30.07 in 7.0 mi West 16.1 mph - N/A   Clear
9:53 AM 16.0 °F 1.7 °F 9.0 °F 74% 30.07 in 7.0 mi West 13.8 mph 21.9 mph N/A   Clear
10:53 AM 18.0 °F 2.2 °F 9.0 °F 68% 30.06 in 7.0 mi West 18.4 mph - N/A   Clear
11:53 AM 19.0 °F 4.5 °F 10.0 °F 68% 30.06 in 7.0 mi WSW 16.1 mph - N/A   Clear
12:53 PM 18.0 °F 0.6 °F 7.0 °F 62% 30.08 in 4.0 mi WSW 23.0 mph 32.2 mph N/A   Clear
1:53 PM 17.1 °F -1.0 °F 6.1 °F 62% 30.08 in 8.0 mi WSW 24.2 mph 32.2 mph N/A   Clear
2:53 PM 16.0 °F -3.2 °F 6.1 °F 65% 30.09 in 4.0 mi WSW 26.5 mph 32.2 mph N/A   Haze
2:57 PM 16.0 °F -3.2 °F 5.0 °F 62% 30.06 in 10.0 mi WSW 26.5 mph 33.4 mph N/A   Clear
3:53 PM 12.9 °F -5.3 °F 3.9 °F 67% 30.14 in 10.0 mi WSW 20.7 mph 26.5 mph N/A   Clear
4:53 PM 10.0 °F -7.6 °F 1.9 °F 70% 30.17 in 9.0 mi WSW 17.3 mph - N/A   Clear
5:53 PM 9.0 °F -9.0 °F -2.0 °F 61% 30.19 in 10.0 mi West 17.3 mph - N/A   Clear
6:53 PM 6.1 °F -10.2 °F -5.1 °F 60% 30.20 in 10.0 mi West 12.7 mph - N/A   Clear
7:53 PM 3.9 °F -14.3 °F -6.0 °F 64% 30.20 in 10.0 mi West 15.0 mph - N/A   Clear
8:53 PM 1.9 °F -14.7 °F -8.0 °F 63% 30.21 in 10.0 mi West 11.5 mph - N/A   Clear
9:53 PM -2.0 °F -17.7 °F -9.9 °F 69% 30.23 in 10.0 mi WSW 9.2 mph - N/A   Clear
10:53 PM -2.0 °F -18.7 °F -9.9 °F 69% 30.22 in 10.0 mi WSW 10.4 mph - N/A   Clear
11:53 PM -2.9 °F -15.0 °F -9.9 °F 72% 30.21 in 9.0 mi SW 5.8 mph - N/A   Clear